Location: Badger Butte
(44.9311°N, 118.3053°W)
Time: 08:41:15
(UTC+00:00)

Daily predictions for brighter satellites

Satellite Brightness Start Highest point End
(mag) Time Altitude Azimuth Time Altitude Azimuth Time Altitude Azimuth
Okean O Rocket 1.7 12:00:16 10° N 12:04:33 52° WNW 12:05:16 46° WSW
EXPRESS MD2 3.4 12:04:42 49° SSW 12:04:42 49° SSW 12:09:48 10° SE
Cosmos 2098 Rocket 3.1 12:00:41 10° N 12:04:50 85° W 12:10:09 10° S
SL-16 R/B 2.7 12:01:26 10° NW 12:06:35 36° WSW 12:11:41 10° S
NOSS 2-2 (C) 3.7 12:07:00 30° SSW 12:09:03 72° SE 12:13:53 10° NE
NOSS 2-2 (E) 3.6 12:07:52 32° SSW 12:09:50 80° SE 12:14:49 10° NE
DELTA 2 R/B (1) 4.0 12:07:47 33° SW 12:09:51 50° S 12:15:13 10° ESE
ARIANE 5 R/B 4.3 12:07:39 10° NNW 12:09:54 16° NW 12:09:54 16° NW
Cosmos 1602 Rocket 3.7 12:08:21 10° S 12:12:46 76° E 12:17:10 10° NNE
PSLV R/B 3.6 12:09:17 10° NNE 12:13:39 81° ESE 12:17:54 10° S
NOSS 8 (A) 4.3 12:13:36 56° WSW 12:14:08 68° NW 12:17:45 10° NE
CZ-4B R/B 3.2 12:10:27 10° N 12:14:49 55° WNW 12:17:04 27° SW
Cosmos 2084 Rocket 3.6 12:11:46 13° NNW 12:15:12 64° NE 12:19:12 10° SE
Cosmos 2228 3.2 12:12:21 10° NNW 12:16:36 49° W 12:20:49 10° SSW
Cosmos 1892 Rocket 4.2 12:16:14 35° W 12:16:43 36° WNW 12:20:53 10° N
USA 129 4.5 12:15:46 10° ESE 12:16:32 15° E 12:16:32 15° E
Cosmos 2227 Rocket 3.4 12:17:06 22° WNW 12:18:15 23° NW 12:22:43 10° N
Cosmos 192 4.4 12:19:29 10° NNW 12:24:17 52° WSW 12:29:03 10° S
MOS 1 Rocket 4.1 12:20:19 10° NNE 12:25:09 58° E 12:30:15 10° S
Cosmos 2297 Rocket 3.3 12:24:59 22° WNW 12:26:42 26° NW 12:31:24 10° N
Okean 2 4.4 12:28:29 26° WNW 12:28:40 26° WNW 12:32:11 10° NNW
Lacrosse 5 3.2 12:30:38 17° WNW 12:33:22 27° NNW 12:37:40 10° NE
Cosmos 2233 Rocket 4.2 12:27:13 10° N 12:33:31 74° E 12:39:42 10° SSE
Cosmos 1812 Rocket 3.5 12:31:49 10° NNW 12:36:16 74° W 12:40:43 10° S
DNEPR-1 R/B 4.5 12:32:10 10° NNW 12:37:11 53° NE 12:41:27 10° SE
Cosmos 1346 Rocket 4.5 12:38:46 17° WNW 12:38:46 17° WNW 12:41:14 10° NNW
AVUM R/B 2.2 12:36:45 16° NNW 12:38:33 89° WSW 12:40:47 10° SSE
COBE Rocket 3.9 12:34:55 10° NNE 12:39:42 79° ESE 12:44:21 10° S
Cosmos 468 4.4 12:40:48 10° NNW 12:46:01 70° WSW 12:51:13 10° S
Cosmos 1943 3.2 12:41:01 10° NNW 12:46:41 85° ENE 12:52:19 10° SSE
ADEOS II 2.1 12:42:58 10° N 12:48:09 59° WNW 12:53:19 10° SSW
Cosmos 1725 Rocket 4.2 12:46:57 10° NNW 12:53:00 51° W 12:59:00 10° SSW
Genesis I 3.6 12:50:22 15° WSW 12:53:23 46° NW 12:57:16 10° NNE
Cosmos 1603 4.1 12:49:16 10° NW 12:54:32 39° WSW 12:59:44 10° S
Cosmos 990 Rocket 4.5 12:51:19 10° SW 12:56:16 41° WNW 13:01:14 10° N
Cosmos 2263 Rocket 3.1 12:52:01 10° S 12:57:24 52° ESE 13:02:47 10° NE
Tiangong 1 2.1 12:56:35 17° WSW 12:58:19 29° SSW 13:01:01 10° SE
Meteor 1-22 Rocket 4.2 12:53:32 10° NNW 12:59:05 82° W 13:04:51 10° S
Cosmos 1766 3.4 13:00:33 10° N 13:04:35 85° E 13:08:34 10° S
Cosmos 1048 Rocket 3.9 12:59:54 10° NNW 13:05:01 72° WSW 13:10:06 10° S
Ariane Rocket 3.7 13:00:10 10° NNE 13:05:15 60° ESE 13:10:17 10° S
SJ-6F 4.5 13:04:05 10° NNE 13:08:17 90° N 13:12:28 10° SSW
Meteor 1-31 Rocket 2.9 13:05:07 10° N 13:08:56 53° WNW 13:12:47 10° SSW
Intercosmos 25 Rocket 3.9 13:06:20 10° NNW 13:09:58 50° W 13:15:23 10° S
COSMO-SKYMED 1 2.5 13:07:29 10° SSE 13:11:49 82° WSW 13:16:12 10° NNW
Cosmos 1269 Rocket 4.1 13:06:44 10° NNW 13:11:53 54° WSW 13:17:01 10° S
Cosmos 1825 Rocket 3.5 13:07:48 10° SSW 13:12:12 76° W 13:16:34 10° N
Cosmos 1340 2.9 13:08:45 10° SSW 13:12:24 46° WNW 13:16:06 10° N
Cosmos 158 Rocket 4.1 13:08:17 10° NNW 13:13:23 85° ENE 13:18:35 10° SSE
ADEOS Rocket 3.9 13:08:41 10° N 13:14:54 34° WNW 13:20:35 10° WSW
Okean-O 3.4 13:11:33 10° N 13:15:27 31° WNW 13:19:20 10° SW
Meteor 1-21 4.4 13:13:43 10° S 13:19:30 90° ESE 13:25:22 10° N
Cosmos 405 Rocket 4.3 13:17:25 10° SSE 13:20:53 39° E 13:24:22 10° NNE
Cosmos 372 Rocket 4.0 13:18:08 10° SSW 13:23:15 87° WNW 13:28:26 10° NNE
DMSP B5D1-3 4.5 13:20:43 10° S 13:25:49 74° WSW 13:30:57 10° NNW
